Location: Julian California
(33.0790°N, 116.6010°W)
Time: 17:18:53
(UTC-07:00)

Meteor 2-10 Rocket - Pass Details

Date: 12 July 2018
Orbit: 734 x 885 km, 81.2° (Epoch: 16 July)

Event Time Altitude Azimuth Distance (km) Brightness Sun altitude
Rises 21:08:47 0° 0° (N) 3,370 7.4 -13.5°
Reaches altitude 10° 21:11:18 10° 8° (N) 2,455 6.5 -13.9°
Maximum altitude 21:16:35 42° 78° (ENE) 1,203 4.2 -14.8°
Enters shadow 21:19:45 23° 136° (SE) 1,772 4.7 -15.3°
